This demonstration page uses our WeatherBlox Daily Observations layout. Learn more.

Left ArrowRight Arrow

Hourly Observations for November 10, 2016

Temp ( °F °C ) Dew Point ( °F °C ) Humidity (%) Winds ( mph kmh ) Pressure ( in mb ) Visibility ( mi km ) Precip ( " mm )
12:51 am 00:51 Clear 55 12.8 31 -0.6 40 40 ESE 9 15 30.18 1022 10 16.0934 N/A
1:51 am 01:51 Clear 55 12.8 32 undefined 42 42 E 12 19 30.17 1022 10 16.0934 N/A
2:51 am 02:51 Clear 52 11.1 33 0.6 49 49 ESE 9 15 30.18 1022 10 16.0934 N/A
3:51 am 03:51 Clear 49 9.4 34 1.1 56 56 E 8 13 30.18 1022 10 16.0934 N/A
4:51 am 04:51 Mostly Cloudy 47 8.3 34 1.1 61 61 ESE 7 11 30.19 1022 10 16.0934 N/A
5:51 am 05:51 Cloudy 50 10 34 1.1 54 54 E 7 11 30.19 1023 10 16.0934 N/A
6:51 am 06:51 Partly Cloudy 50 10 34 1.1 54 54 SSE 8 13 30.2 1023 10 16.0934 N/A
7:51 am 07:51 Mostly Sunny 53 11.7 34 1.1 48 48 SE 7 11 30.23 1024 10 16.0934 N/A
8:51 am 08:51 Sunny 56 13.3 35 1.7 46 46 SE 8 13 30.24 1024 10 16.0934 N/A
9:51 am 09:51 Sunny 60 15.6 37 2.8 42 42 SSE 10 17 30.22 1024 10 16.0934 N/A
10:51 am 10:51 Sunny 63 17.2 39 3.9 41 41 ESE 13 20 30.2 1023 10 16.0934 N/A
11:51 am 11:51 Sunny 65 18.3 38 3.3 37 37 ESE 17 28 30.16 1021 10 16.0934 N/A
12:51 pm 12:51 Sunny 65 18.3 38 3.3 37 37 ESE 13 20 30.12 1020 10 16.0934 N/A
1:51 pm 13:51 Partly Cloudy 69 20.6 39 3.9 33 33 SE 17 28 30.1 1019 10 16.0934 N/A
2:51 pm 14:51 Mostly Sunny 69 20.6 39 3.9 33 33 ESE 10 17 30.09 1019 10 16.0934 N/A
3:51 pm 15:51 Partly Cloudy 66 18.9 40 4.4 39 39 S 10 17 30.1 1019 10 16.0934 N/A
4:51 pm 16:51 Sunny 66 18.9 40 4.4 39 39 SSE 7 11 30.11 1020 10 16.0934 N/A
5:51 pm 17:51 Clear 61 16.1 41 5 48 48 S 7 11 30.12 1020 10 16.0934 N/A
6:51 pm 18:51 Clear 56 13.3 41 5 57 57 ESE 5 7 30.15 1021 10 16.0934 N/A
7:51 pm 19:51 Clear 55 12.8 41 5 59 59 ESE 7 11 30.15 1021 10 16.0934 N/A
8:51 pm 20:51 Clear 53 11.7 41 5 64 64 ESE 5 7 30.17 1022 10 16.0934 N/A
9:51 pm 21:51 Clear 52 11.1 41 5 66 66 ESE 6 9 30.19 1022 10 16.0934 N/A
10:51 pm 22:51 Clear 53 11.7 41 5 64 64 ESE 7 11 30.18 1022 10 16.0934 N/A
11:51 pm 23:51 Clear 49 9.4 41 5 74 74 SE 5 7 30.19 1022 10 16.0934 N/A

Powered by AerisWeather